Total_Precipitation_Accumulation
0.07 0.15 0.41 0.60 0.62 0.63 0.63 0.62 0.60 0.54 0.51 0.54 0.61 0.68 0.71 0.66 0.63 0.58 0.56 0.57 0.61 0.66 0.72 0.78 0.78 0.78 0.75 0.73 0.66 0.59 0.58 0.58 0.60 0.58 0.61 0.66 0.68 0.63 0.56 0.52 0.40 0.46 0.70
0.06 0.16 0.39 0.53 0.58 0.61 0.62 0.59 0.56 0.52 0.52 0.55 0.61 0.63 0.65 0.64 0.63 0.63 0.61 0.61 0.63 0.68 0.76 0.82 0.78 0.76 0.74 0.69 0.61 0.51 0.48 0.44 0.44 0.42 0.39 0.39 0.56 0.63 0.56 0.57 0.52 0.73 0.85
0.05 0.14 0.31 0.48 0.56 0.61 0.60 0.57 0.54 0.54 0.56 0.61 0.64 0.63 0.60 0.59 0.62 0.68 0.70 0.67 0.66 0.64 0.67 0.74 0.77 0.73 0.68 0.60 0.53 0.47 0.45 0.38 0.32 0.32 0.30 0.24 0.46 0.73 0.71 0.70 0.66 0.85 0.85
0.06 0.14 0.24 0.44 0.55 0.60 0.61 0.61 0.63 0.65 0.65 0.72 0.72 0.68 0.64 0.62 0.64 0.69 0.68 0.67 0.66 0.64 0.64 0.67 0.66 0.65 0.58 0.47 0.44 0.43 0.44 0.39 0.29 0.24 0.15 0.16 0.42 0.77 0.82 0.76 0.71 0.76 0.80
0.08 0.15 0.29 0.47 0.58 0.61 0.66 0.66 0.67 0.69 0.74 0.78 0.78 0.76 0.75 0.75 0.70 0.71 0.70 0.67 0.62 0.61 0.61 0.64 0.60 0.59 0.55 0.50 0.46 0.43 0.42 0.37 0.28 0.19 0.10 0.14 0.34 0.71 0.71 0.68 0.63 0.67 0.72
0.12 0.19 0.34 0.51 0.64 0.68 0.71 0.70 0.72 0.75 0.77 0.81 0.78 0.75 0.78 0.84 0.80 0.71 0.68 0.69 0.63 0.59 0.61 0.62 0.60 0.60 0.54 0.49 0.49 0.51 0.48 0.42 0.27 0.15 0.12 0.14 0.23 0.52 0.65 0.69 0.69 0.66 0.63
0.19 0.25 0.38 0.57 0.70 0.76 0.78 0.81 0.83 0.85 0.86 0.83 0.80 0.76 0.77 0.79 0.81 0.76 0.68 0.65 0.62 0.60 0.62 0.63 0.60 0.61 0.59 0.53 0.52 0.56 0.60 0.47 0.28 0.26 0.22 0.21 0.27 0.45 0.59 0.70 0.72 0.68 0.68
0.24 0.33 0.49 0.71 0.81 0.84 0.88 0.84 0.89 0.97 0.99 0.95 0.87 0.83 0.83 0.82 0.78 0.77 0.69 0.67 0.66 0.63 0.59 0.56 0.55 0.55 0.55 0.54 0.52 0.54 0.58 0.45 0.32 0.35 0.38 0.36 0.39 0.52 0.60 0.66 0.70 0.72 0.75
0.26 0.38 0.56 0.79 0.89 1.00 1.02 0.95 0.93 0.95 1.03 1.02 0.95 0.91 0.90 0.86 0.78 0.75 0.72 0.66 0.65 0.68 0.66 0.56 0.53 0.51 0.48 0.47 0.47 0.48 0.49 0.45 0.45 0.53 0.45 0.49 0.46 0.60 0.70 0.67 0.69 0.76 0.79
0.34 0.47 0.63 0.82 0.93 1.02 1.10 1.05 0.99 0.97 1.01 1.06 1.00 0.94 0.94 0.94 0.90 0.81 0.71 0.71 0.68 0.65 0.69 0.65 0.59 0.60 0.56 0.47 0.42 0.41 0.42 0.41 0.41 0.47 0.55 0.46 0.48 0.71 0.86 0.80 0.73 0.75 0.81
0.49 0.62 0.76 0.88 1.00 1.11 1.16 1.10 1.12 1.10 1.12 1.15 1.12 1.08 1.04 1.04 1.02 0.91 0.76 0.72 0.74 0.69 0.67 0.69 0.65 0.66 0.66 0.54 0.43 0.40 0.39 0.32 0.36 0.46 0.50 0.44 0.54 0.79 1.02 0.96 0.87 0.80 0.81
0.52 0.68 0.83 0.92 1.06 1.23 1.28 1.27 1.31 1.22 1.17 1.21 1.10 1.07 1.09 1.08 1.12 1.00 0.89 0.79 0.77 0.76 0.75 0.73 0.71 0.70 0.67 0.57 0.51 0.47 0.36 0.28 0.27 0.28 0.30 0.34 0.47 0.70 1.01 1.08 1.03 0.98 0.95
0.53 0.68 0.84 0.99 1.14 1.31 1.33 1.29 1.29 1.28 1.19 1.22 1.20 1.08 1.05 1.10 1.09 1.11 1.03 1.01 0.92 0.85 0.84 0.84 0.85 0.78 0.72 0.65 0.60 0.53 0.40 0.35 0.31 0.25 0.23 0.27 0.35 0.54 0.77 0.95 1.14 1.16 1.18
0.61 0.73 0.88 1.05 1.23 1.39 1.39 1.39 1.31 1.23 1.17 1.13 1.22 1.22 1.14 1.07 0.98 0.94 0.92 0.88 0.86 0.82 0.83 0.85 0.84 0.78 0.79 0.75 0.66 0.60 0.54 0.48 0.40 0.33 0.27 0.30 0.32 0.44 0.65 0.82 1.02 1.18 1.30
0.65 0.78 0.89 1.05 1.20 1.40 1.58 1.53 1.48 1.34 1.21 1.17 1.20 1.23 1.19 1.11 1.00 0.91 0.85 0.88 0.84 0.77 0.74 0.77 0.73 0.68 0.65 0.66 0.66 0.62 0.62 0.55 0.49 0.45 0.39 0.38 0.36 0.37 0.53 0.71 0.87 1.10 1.31
0.72 0.83 0.96 1.09 1.18 1.33 1.52 1.56 1.54 1.48 1.41 1.37 1.26 1.20 1.20 1.21 1.11 0.98 0.90 0.87 0.86 0.82 0.79 0.74 0.72 0.65 0.58 0.53 0.51 0.51 0.55 0.56 0.55 0.52 0.45 0.42 0.39 0.37 0.43 0.60 0.79 1.00 1.26
0.76 0.89 1.03 1.15 1.28 1.33 1.39 1.56 1.58 1.57 1.52 1.50 1.36 1.30 1.31 1.28 1.25 1.16 1.04 0.94 0.85 0.80 0.80 0.81 0.78 0.73 0.65 0.56 0.50 0.49 0.48 0.47 0.48 0.50 0.46 0.44 0.44 0.42 0.42 0.51 0.67 0.86 1.11
0.82 0.94 1.13 1.24 1.32 1.34 1.33 1.48 1.56 1.59 1.63 1.63 1.59 1.47 1.43 1.41 1.36 1.32 1.21 1.13 1.05 0.94 0.86 0.82 0.78 0.75 0.70 0.62 0.55 0.51 0.50 0.47 0.43 0.43 0.42 0.42 0.45 0.45 0.44 0.48 0.57 0.77 0.99
0.77 0.94 1.16 1.28 1.33 1.36 1.37 1.43 1.59 1.60 1.61 1.70 1.77 1.70 1.60 1.59 1.50 1.42 1.32 1.26 1.29 1.23 1.06 0.91 0.84 0.77 0.71 0.64 0.61 0.57 0.54 0.51 0.49 0.48 0.43 0.39 0.39 0.42 0.45 0.47 0.52 0.64 0.80
0.79 0.96 1.18 1.37 1.44 1.45 1.50 1.49 1.60 1.74 1.62 1.57 1.67 1.72 1.71 1.71 1.64 1.57 1.45 1.30 1.32 1.37 1.32 1.14 0.95 0.87 0.78 0.70 0.68 0.66 0.63 0.58 0.53 0.49 0.47 0.44 0.42 0.41 0.45 0.49 0.49 0.53 0.64
0.89 0.97 1.14 1.33 1.44 1.47 1.50 1.47 1.42 1.55 1.61 1.48 1.41 1.56 1.72 1.80 1.83 1.79 1.65 1.52 1.41 1.35 1.30 1.26 1.16 1.06 0.97 0.86 0.85 0.83 0.74 0.65 0.62 0.54 0.47 0.43 0.42 0.40 0.41 0.48 0.51 0.50 0.58
0.92 0.95 1.08 1.28 1.38 1.37 1.35 1.41 1.40 1.44 1.53 1.56 1.45 1.46 1.59 1.76 1.90 2.05 1.95 1.76 1.60 1.47 1.42 1.35 1.26 1.24 1.18 1.04 0.95 0.97 0.96 0.89 0.73 0.60 0.53 0.44 0.42 0.42 0.42 0.43 0.48 0.52 0.55
0.94 0.95 0.95 1.13 1.36 1.40 1.40 1.51 1.56 1.65 1.70 1.70 1.58 1.45 1.48 1.56 1.65 1.75 1.88 1.78 1.73 1.62 1.54 1.44 1.34 1.30 1.31 1.20 1.03 1.11 1.18 1.03 0.79 0.67 0.60 0.54 0.46 0.44 0.42 0.41 0.44 0.49 0.53
0.91 1.05 1.02 1.05 1.24 1.46 1.47 1.46 1.47 1.54 1.57 1.57 1.51 1.41 1.41 1.52 1.57 1.59 1.69 1.75 1.64 1.53 1.45 1.41 1.37 1.27 1.30 1.31 1.18 1.04 0.99 0.96 0.99 0.87 0.68 0.63 0.62 0.56 0.49 0.43 0.41 0.46 0.52
0.94 1.10 1.17 1.16 1.16 1.37 1.43 1.36 1.36 1.37 1.43 1.54 1.55 1.50 1.44 1.52 1.61 1.65 1.63 1.69 1.73 1.60 1.41 1.32 1.36 1.37 1.32 1.27 1.20 1.10 0.96 0.83 0.81 0.94 0.82 0.70 0.72 0.70 0.66 0.59 0.53 0.54 0.56
0.99 1.13 1.23 1.27 1.20 1.25 1.46 1.41 1.30 1.27 1.29 1.40 1.51 1.61 1.60 1.56 1.59 1.65 1.67 1.62 1.62 1.66 1.60 1.41 1.33 1.36 1.34 1.30 1.25 1.18 1.12 1.05 0.90 0.88 0.84 0.68 0.65 0.64 0.68 0.75 0.74 0.72 0.71